Back to catalog

THORAD AGENA D DEB

AliveSSO
NORAD 4705·DEBRIS·🇺🇸 United States

Launched Apr 8, 1970 from Vandenberg Space Force Base

Loading…

Next Passes (next 24 hours)

TLE

FreshSource: Space-Track

Epoch: Sep 14, 2026, 08:50 UTC

1 04705U 70025BT  26257.36840370  .00000400  00000-0  60465-3 0  9991
2 04705 100.0554  30.9767 0042132  18.7664   4.7627 13.59071175782427

Track THORAD AGENA D DEB in real time with AllMySat

Download on the App Store